Orbital Elements at Epoch 2459000.5 (2020-May-31.0) TDB
Reference: JPL 13 (heliocentric ecliptic J2000)
Element | Value | Uncertainty (1-sigma) | Units |
e | .1602332583274403 | 4.568e-08 | |
a | 2.371833054307707 | 1.1743e-08 | au |
q | 1.991786515807259 | 1.0794e-07 | au |
i | 3.321751224454571 | 5.1417e-06 | deg |
node | 72.60827519105554 | 7.1003e-05 | deg |
peri | 358.3288659462997 | 7.2343e-05 | deg |
M | 171.0076966173808 | 1.5267e-05 | deg |
tp | 2458366.721125133631 (2018-Sep-05.22112513) | 5.4026e-05 | TDB |
period | 1334.211263381833 3.65 | 9.9082e-06 2.713e-08 | d yr |
n | .2698223361475047 | 2.0038e-09 | deg/d |
Q | 2.751879592808155 | 1.3624e-08 | au |
|
| | Orbit Determination Parameters
Additional Information
|